Regional Weather Roundup
Issued by NWS

Home | Current Version | Previous Version | Text Only | Print | Product List | Glossary Off
Versions: 1 2 3 4 5 6 7 8 9 10 11 12 13 14 15 16 17 18 19 20 21 22 23 24 25 26 27 28 29 30 31 32 33 34 35 36 37 38 39 40 41 42 43 44 45 46 47 48 49 50

756
ASUS43 KLOT 261204
RWRIL

ILLINOIS REGIONAL WEATHER ROUNDUP
NATIONAL WEATHER SERVICE CHICAGO/ROMEOVILLE IL
700 AM CDT MON JUN 26 2017

NOTE: "FAIR" INDICATES FEW OR NO CLOUDS BELOW 12,000 FEET WITH NO
SIGNIFICANT WEATHER AND/OR OBSTRUCTIONS TO VISIBILITY.

* THESE STATIONS ARE NOT UNDER NWS QUALITY CONTROL. THEY ALSO MAY NOT
  REPORT WEATHER SUCH AS PRECIPITATION OR FOG.

ILZ001-002-007-009-015-016-024-261300-
NORTHWEST ILLINOIS

CITY           SKY/WX    TMP DP  RH WIND       PRES   REMARKS
MOLINE         CLOUDY    56  48  74 W8        30.18R
6HR MIN TEMP:  49; 6HR MAX TEMP:  56;

STERLING*      CLOUDY    56  51  84 SW6       30.16R
SAVANNA*       MOSUNNY   56  46  68 W5        30.15R
$$

ILZ003-004-008-010-011-017-018-261300-
NORTH CENTRAL ILLINOIS

CITY           SKY/WX    TMP DP  RH WIND       PRES   REMARKS
ROCKFORD       PTSUNNY   56  49  77 W6        30.15S
6HR MIN TEMP:  52; 6HR MAX TEMP:  56;

FREEPORT*      MOSUNNY   54  47  77 W5        30.16R
ROCHELLE*      PTSUNNY   54  51  90 SW5       30.14S
DE KALB*       CLOUDY    56  49  77 W7        30.14S
PERU*          CLOUDY    53  48  84 W8        30.16S
$$

ILZ005-006-012>014-019>023-261300-
NORTHEAST ILLINOIS

CITY           SKY/WX    TMP DP  RH WIND       PRES   REMARKS
CHICAGO-OHARE  CLOUDY    58  48  69 W9        30.11S
6HR MIN TEMP:  54; 6HR MAX TEMP:  59;

CHICAGO-MIDWAY CLOUDY    59  50  72 W7        30.12S
6HR MIN TEMP:  55; 6HR MAX TEMP:  60;

AURORA         CLOUDY    56  52  86 W5        30.14R
6HR MIN TEMP:  49; 6HR MAX TEMP:  56;

LANSING*       MOSUNNY   56  49  78 W7        30.14S
JOLIET*        CLOUDY    57  51  81 CALM      30.15R
WAUKEGAN       MOSUNNY   56  53  90 SW3       30.10S
6HR MIN TEMP:  53; 6HR MAX TEMP:  56;

DUPAGE AIRPORT CLOUDY    55  51  86 W6        30.12S
6HR MIN TEMP:  50; 6HR MAX TEMP:  56;

WHEELING       PTSUNNY   58  51  78 W8        30.13S
6HR MIN TEMP:  54; 6HR MAX TEMP:  58;

MORRIS*        PTSUNNY   55  50  82 W8        30.14R
ROMEOVILLE*    CLOUDY    55  49  81 W5        30.14R
NORTHERLY ISL    N/A     59  48  67 W3          N/A
$$

LMZ740>746-261300-
SOUTHERN LAKE MICHIGAN

STATION/POSITION SKY/WX   TEMP    WIND        PRES    VSBY  WAVE
                          AIR SEA DIR/SP/G                  HT/PER
                          (F)     (DEG/KT/KT) (MB)    (MI)  (FT/S)
SOUTHERN BUOY              60 61  310/ 16/ 19 1018.2          3/ 4
WILMETTE HARBOR            58 63  250/ 10/ 12   N/A           1/ 2
HARRISON CRIB              60     270/ 10/ 11   N/A
BURNHAM HARBOR             60                   N/A
CALUMET HARBOR             58     250/  3/  6 1019.4F
BURNS HARBOR               60     250/ 12/ 15 1020.0S
MICHIGAN CITY              60     240/ 16/ 17   N/A
MICHIGAN CITY 6N           62 66  280/ 12/ 16   N/A           3/ 4
ST. JOSEPH                 63 68  290/ 14/ 17 1019.4R         4/ 5
$$

ILZ025>027-034>036-040-047-049-050-058-095>099-261300-
WEST-CENTRAL ILLINOIS

CITY           SKY/WX    TMP DP  RH WIND       PRES   REMARKS
QUINCY         SUNNY     56  52  86 SW5       30.20S
GALESBURG*     CLOUDY    54  49  82 CALM      30.19F
MACOMB*        SUNNY     54  51  90 W6        30.22R
JACKSONVILLE*  SUNNY     56  49  79 SW3       30.20S
PITTSFIELD*    SUNNY     58  50  77 CALM      30.21F
$$

ILZ028>032-037-038-041>044-048-051>054-059>061-261300-
CENTRAL ILLINOIS

CITY           SKY/WX    TMP DP  RH WIND       PRES   REMARKS
PONTIAC        SUNNY     58  54  85 W5        30.17R
BLOOMINGTON    SUNNY     58  49  72 W7        30.19R
DECATUR        SUNNY     59  49  69 W7        30.19R
PEORIA         SUNNY     56  49  77 NW3       30.18S
6HR MIN TEMP:  51; 6HR MAX TEMP:  56;

LACON*         MOSUNNY   57  49  76 W5        30.17R
LINCOLN*       SUNNY     59  50  72 CALM      30.19S
SPRINGFIELD    SUNNY     56  50  80 SW5       30.20R
6HR MIN TEMP:  51; 6HR MAX TEMP:  57;

TAYLORVILLE    SUNNY     55  50  83 W3        30.20F
6HR MIN TEMP:  49; 6HR MAX TEMP:  55;

$$

ILZ033-039-045-046-055>057-062-063-261300-
EAST-CENTRAL ILLINOIS

CITY           SKY/WX    TMP DP  RH WIND       PRES   REMARKS
CHAMPAIGN      SUNNY     54  50  86 W5        30.18S
RANTOUL*       SUNNY     60  54  81 W5        30.17S
MATTOON        MOSUNNY   59  52  77 W5        30.18R
PARIS*         SUNNY     56  53  86 W5        30.19R
$$

ILZ079-100>102-261300-
SOUTHWEST ILLINOIS

CITY           SKY/WX    TMP DP  RH WIND       PRES   REMARKS
ALTON          SUNNY     55  55 100 CALM      30.22R
BELLEVILLE     SUNNY     58  52  80 CALM      30.22S
CAHOKIA*       SUNNY     60  53  77 CALM      30.21S
SPARTA*        SUNNY     61  49  65 W3        30.23S
$$

ILZ064>066-069>071-074>076-080>082-084>086-088>090-092>094-261300-
SOUTH-CENTRAL ILLINOIS

CITY           SKY/WX    TMP DP  RH WIND       PRES   REMARKS
CARBONDALE     SUNNY     61  60  97 CALM      30.22R
6HR MIN TEMP:  57; 6HR MAX TEMP:  67;

CAIRO*         MOSUNNY   65  56  73 CALM      30.21R
EFFINGHAM*     SUNNY     58  53  84 W3        30.21S
MARION         SUNNY     61  61 100 SW5       30.23R
MT. VERNON     SUNNY     56  54  93 CALM      30.22R
CENTRALIA*     SUNNY     58  55  88 CALM      30.20S
SALEM*         SUNNY     60  53  77 CALM      30.21S
METROPOLIS*    SUNNY     64  58  79 CALM      30.22S
$$

ILZ067-068-072-073-078-083-087-091-261300-
SOUTHEAST ILLINOIS

CITY           SKY/WX    TMP DP  RH WIND       PRES   REMARKS
LAWRENCEVILLE  SUNNY     57  54  89 SW3       30.20R
FLORA*         SUNNY     60  52  76 SW3       30.21S
FAIRFIELD*     SUNNY     57  53  86 CALM      30.20S
HARRISBURG*    SUNNY     60  57  90 CALM      30.22R
ROBINSON*      SUNNY     56  53  90 CALM      30.19S
CARMI*         SUNNY     59  55  85 CALM      30.21R
$$

ABBREVIATIONS USED IN REMARKS
   TC - TEMPERATURE IN CELSIUS
  WCI - WIND CHILL INDEX
   HX - HEAT INDEX
  VSB - VISIBILITY
$$





USA.gov is the U.S. government's official web portal to all federal, state and local government web resources and services.